Weather History for Luxor, Egypt

Change the Weather History Date:

Friday, December 7, 2012

  Actual Average Record
Temperature  
Mean Temperature 69 °F -  
Max Temperature 84 °F 72 °F 86 °F (1998)
Min Temperature 54 °F 46 °F 44 °F (1999)
Cooling Degree Days 4    
Growing Degree Days 19 (Base 50)    
Moisture  
Dew Point 52 °F    
Average Humidity 57    
Maximum Humidity 77    
Minimum Humidity 35    
Precipitation  
Precipitation 0.00 in 0.00 in - ()
Sea Level Pressure  
Sea Level Pressure 29.97 in    
Wind  
Wind Speed 1 mph ()    
Max Wind Speed 5 mph    
Max Gust Speed -    
Visibility 6.0 miles    
Events      
Averages and records for this station are not official NWS values.
T = Trace of Precipitation, MM = Missing Value Source: Averaged Metar Reports

Daily Weather History Graph

Daily Weather History Graph

Search for Another Location

Airport:

Trip Planner

Search our weather history database for the weather conditions in past years. The results will help you decide how hot, cold, wet, or windy it might be!

Date:

Astronomy

Dec. 07, 2012 Rise Set
Actual Time 6:22 AM EET 4:58 PM EET
Civil Twilight 5:57 AM EET 5:23 PM EET
Nautical Twilight 5:29 AM EET 5:52 PM EET
Astronomical Twilight 5:01 AM EET 6:20 PM EET
Moon No Moon Rise 12:13 PM EET (12/7)
Length of Visible Light 11h 25m
Length of Day
10h 35m
Last Quarter, 42% of the Moon is Illuminated
Dec 7
Last Quarter
Dec 13
New
Dec 20
First Quarter
Dec 28
Full
Jan 5
Last Quarter

Hourly Weather History & Observations

Time (EET) Temp. Heat Index Dew Point Humidity Pressure Visibility Wind Dir Wind Speed Gust Speed Precip Events Conditions
12:00 AM 62.6 °F - 51.8 °F 68% 29.98 in - Calm Calm - N/A   Clear
1:00 AM 60.8 °F - 48.2 °F 63% 29.98 in - SSE 2.3 mph - N/A   Clear
2:00 AM 57 °F - 48 °F 64% 29.98 in 6 mi Calm Calm - -  
2:00 AM 57.2 °F - 48.2 °F 72% 29.98 in - Calm Calm - N/A   Clear
3:00 AM 57.2 °F - 48.2 °F 72% 29.95 in - Calm Calm - N/A   Clear
4:00 AM 57.2 °F - 44.6 °F 63% 29.95 in - Calm Calm - N/A   Clear
5:00 AM 57.2 °F - 46.4 °F 67% 29.95 in - Calm Calm - N/A   Clear
6:00 AM 57.2 °F - 46.4 °F 67% 29.95 in - Calm Calm - N/A   Clear
7:00 AM 55.4 °F - 48.2 °F 77% 29.98 in - Calm Calm - N/A   Clear
8:00 AM 60 °F - 49 °F 58% 30.02 in 6 mi Calm Calm - -  
8:00 AM 60.8 °F - 48.2 °F 63% 30.01 in - Calm Calm - N/A   Clear
9:00 AM 66.2 °F - 51.8 °F 60% 30.01 in - NE 2.3 mph - N/A   Clear
10:00 AM 69.8 °F - 53.6 °F 56% 30.01 in - East 4.6 mph - N/A   Clear
11:00 AM 73.4 °F - 57.2 °F 57% 29.98 in - Calm Calm - N/A   Clear
12:00 PM 77.0 °F - 55.4 °F 47% 29.98 in - Calm Calm - N/A   Clear
1:00 PM 78.8 °F - 53.6 °F 42% 29.95 in - Calm Calm - N/A   Clear
2:00 PM 81 °F - 58 °F 35% 29.92 in 6 mi West 4.6 mph - -   Mostly Cloudy
2:00 PM 80.6 °F 80.8 °F 57.2 °F 45% 29.92 in - West 4.6 mph - N/A   Clear
3:00 PM 84.2 °F 82.8 °F 53.6 °F 35% 29.92 in - Calm Calm - N/A   Clear
4:00 PM 78.8 °F - 57.2 °F 47% 29.92 in - Calm Calm - N/A   Clear
5:00 PM 77.0 °F - 59.0 °F 54% 29.92 in - Calm Calm - N/A   Clear
6:00 PM 75.2 °F - 57.2 °F 53% 29.95 in - Calm Calm - N/A   Clear
7:00 PM 71.6 °F - 57.2 °F 60% 29.95 in - Calm Calm - N/A   Clear
8:00 PM 69 °F - 53 °F 47% 29.98 in 6 mi Calm Calm - -   Partly Cloudy
8:00 PM 69.8 °F - 53.6 °F 56% 29.98 in - Calm Calm - N/A   Clear
9:00 PM 68.0 °F - 53.6 °F 60% 29.98 in - Calm Calm - N/A   Clear
10:00 PM 66.2 °F - 51.8 °F 60% 29.98 in - SSE 3.5 mph - N/A   Clear
11:00 PM 64.4 °F - 50.0 °F 59% 29.98 in - Calm Calm - N/A   Clear